Dewpoint
62 57 57 52 51 43 40 41 27 26 29 22 21 19 19 18 16 13 6 14 11 16 18 12 9 11 9 24 55 55 56 56 57 54 53 61 66 67 68 69 70 71 73 73 74 74 74 75 75 75 74 75 74 74 74 74 74 73 73 73 73 73 73 73 73 73 73 72 72 72 72 72 72 71 72 71 70 69 69 68 68 68 67 67 67 66 66 67 68 68 68 67 67 67 67 68 68
51 51 48 49 44 43 40 39 33 24 28 21 20 19 15 14 10 3 4 5 11 17 13 10 5 6 10 54 57 57 56 59 60 60 62 63 67 67 68 68 70 71 72 73 73 73 74 74 74 74 74 74 74 74 74 74 74 73 73 73 73 73 73 73 73 73 72 72 72 72 72 72 72 71 71 70 70 70 70 69 67 67 68 67 67 67 67 68 68 68 67 67 66 66 67 67 67
49 49 46 44 44 44 39 35 30 24 18 19 19 18 18 -4 0 4 5 5 8 11 7 10 7 7 11 50 53 55 55 59 60 61 62 64 65 66 68 69 70 71 72 72 72 73 74 74 74 74 74 74 74 74 74 74 74 74 73 73 73 73 73 73 73 73 72 72 72 72 72 72 71 71 71 70 71 71 70 70 67 68 67 67 67 68 68 68 68 69 69 68 67 67 67 67 67
58 51 45 50 38 39 34 32 31 25 18 12 9 4 2 1 10 4 9 7 6 8 7 4 12 34 39 51 52 55 56 57 60 62 63 64 64 67 68 70 70 71 71 71 72 73 74 75 74 74 74 74 74 74 74 74 74 73 73 73 73 73 73 73 72 72 72 72 72 72 72 71 72 71 71 71 71 71 70 71 70 68 67 68 68 68 68 69 69 69 70 69 67 67 67 66 67
51 49 48 47 42 35 33 28 27 23 20 17 7 -1 8 8 8 7 8 9 7 7 10 9 18 54 55 54 53 53 57 59 60 62 64 65 66 67 68 68 68 69 70 70 72 73 74 74 74 74 74 74 74 74 74 74 74 74 73 73 73 73 73 72 72 72 72 72 72 72 71 71 71 71 71 71 71 71 71 71 70 68 68 69 70 69 70 70 70 70 69 69 69 69 67 66 66
46 43 44 46 37 39 32 31 24 15 20 15 8 0 6 7 9 9 10 12 11 12 10 13 16 53 54 55 56 57 59 58 62 64 65 65 66 67 67 67 66 68 69 71 72 73 74 74 74 74 74 74 74 74 74 74 74 73 73 73 73 73 72 72 72 72 72 72 71 71 71 71 71 71 71 70 71 71 70 70 71 69 69 69 69 69 70 69 69 69 69 69 69 69 69 68 66
38 39 39 39 35 33 32 30 27 23 19 12 10 1 7 7 10 11 10 9 17 19 12 14 54 55 54 57 59 59 61 59 62 64 66 67 68 67 66 65 67 68 69 71 72 73 73 74 73 74 74 74 74 74 74 74 74 73 73 73 73 73 72 72 72 72 72 72 71 71 71 71 71 71 70 70 70 71 70 70 69 70 70 69 70 70 70 70 70 70 70 69 69 69 69 69 69
42 34 33 28 25 28 27 25 23 22 20 16 6 4 12 10 16 11 4 9 29 15 16 19 36 55 58 60 58 60 62 65 66 67 66 69 69 69 67 69 67 68 69 71 72 73 74 73 74 73 74 74 74 74 74 74 73 73 73 73 73 73 72 72 72 72 72 72 71 71 71 71 71 71 70 70 70 71 70 70 70 70 70 71 70 70 71 70 70 70 69 69 69 69 68 69 68
37 32 37 30 24 22 16 18 18 16 14 12 6 27 31 14 12 11 8 8 17 17 14 14 52 54 58 58 58 61 65 67 68 69 67 67 68 69 70 70 67 68 70 72 72 73 73 74 73 73 74 74 74 74 73 73 73 73 73 73 73 73 73 72 72 72 72 72 72 71 71 71 72 71 71 71 70 70 70 70 70 70 71 71 71 70 70 70 70 69 69 69 69 69 69 69 69
36 30 30 29 26 21 13 10 11 11 8 4 5 9 8 10 9 12 18 5 5 27 25 38 49 57 58 58 60 62 65 68 66 66 67 68 68 68 68 70 70 70 71 71 72 73 73 75 73 73 73 74 73 73 73 73 73 73 73 73 73 73 73 73 72 72 72 72 72 72 72 72 72 72 72 70 70 71 71 70 71 71 71 71 71 70 70 70 70 70 70 69 69 69 69 69 70
32 26 34 30 27 24 19 14 11 11 11 6 5 9 9 7 9 11 10 6 11 25 25 56 57 58 60 61 62 65 67 66 66 66 67 69 69 68 70 71 71 70 70 71 72 72 73 73 74 73 73 73 73 73 73 73 73 73 73 72 72 73 73 72 72 72 72 72 72 72 72 72 72 72 72 71 71 71 71 71 71 71 71 71 70 70 70 70 70 69 69 69 69 69 69 69 69
29 23 25 22 21 20 18 12 8 7 8 1 8 16 9 8 10 10 10 14 19 19 22 25 55 60 60 61 62 64 66 65 66 67 68 69 69 68 69 71 70 69 70 71 72 72 72 72 73 74 73 73 73 73 73 73 72 72 72 72 72 72 72 72 72 72 72 72 72 72 72 72 72 72 72 72 72 72 72 71 71 71 71 70 70 70 70 70 70 70 70 69 69 69 69 69 69
26 25 20 18 15 12 12 8 4 17 5 9 8 14 10 10 9 9 8 9 11 20 54 58 59 59 60 61 63 66 65 65 66 67 68 69 69 69 70 69 69 69 69 70 70 71 72 72 72 72 72 73 72 72 73 73 72 72 72 72 72 72 72 72 72 72 72 72 72 72 71 71 71 72 72 72 72 72 71 71 71 70 70 70 70 70 70 70 70 70 69 69 69 69 69 69 69
25 24 23 20 18 13 12 10 5 3 7 8 9 13 16 10 12 11 11 9 9 17 50 57 59 62 61 62 63 64 64 65 66 67 68 68 69 69 69 69 68 68 68 69 70 70 71 71 71 72 72 71 72 72 73 72 72 72 72 72 72 72 72 72 72 72 72 72 72 71 71 71 71 72 72 72 72 72 71 71 71 70 70 70 69 70 70 70 70 70 69 69 69 69 69 69 69
21 23 23 23 16 13 10 8 7 2 6 7 12 13 13 19 12 14 12 15 13 18 41 57 61 56 57 61 61 63 64 65 66 67 67 68 68 69 70 68 67 67 66 68 68 69 70 70 71 71 71 71 71 71 72 72 72 72 72 72 72 72 72 72 72 72 72 71 71 71 71 71 71 72 72 72 72 71 71 71 71 71 70 70 69 70 70 69 70 70 70 69 69 69 69 69 69
16 14 19 25 13 10 9 7 4 2 7 11 11 13 13 12 13 14 18 14 14 20 37 49 52 56 56 60 62 64 65 65 66 67 67 67 68 69 69 67 66 66 66 66 66 67 69 70 70 70 70 70 71 71 71 71 72 72 72 72 72 72 72 72 72 72 72 71 71 71 71 71 71 71 72 71 71 71 71 70 71 70 70 70 70 70 69 69 69 69 70 69 70 69 69 69 69
17 15 16 19 13 12 10 7 5 7 10 10 12 12 9 13 16 16 19 19 13 34 51 53 53 54 57 61 64 65 65 66 67 66 66 67 68 68 68 67 65 65 66 65 65 65 68 69 69 69 70 70 70 70 71 71 71 73 72 72 72 72 72 72 72 72 72 71 71 71 70 70 70 70 70 70 71 71 71 71 70 70 70 70 70 69 69 69 68 69 70 70 69 70 69 69 69
19 19 16 13 13 12 11 3 8 10 8 10 12 13 11 5 6 14 13 16 12 49 56 58 61 63 64 64 65 65 66 66 66 66 66 66 67 67 67 66 64 63 64 64 64 65 68 69 68 68 69 69 70 70 70 71 72 71 71 71 72 72 72 72 72 71 72 70 71 70 69 70 69 69 70 70 70 71 70 71 70 70 70 70 69 69 68 68 68 68 69 70 70 70 70 66 67
12 18 16 10 10 10 9 5 6 7 8 14 14 10 13 11 11 10 8 6 14 48 57 59 61 62 63 66 66 65 66 66 66 65 65 66 66 66 66 66 65 64 64 66 66 66 67 68 67 68 69 69 69 69 70 71 71 71 71 71 71 71 71 72 71 71 70 70 70 70 70 69 69 69 69 70 70 70 70 70 70 69 69 69 69 69 68 68 68 67 68 69 70 69 68 66 65
10 16 13 11 9 7 7 7 10 9 8 7 9 14 14 9 6 13 10 6 28 50 55 59 60 61 62 65 66 66 66 66 66 66 65 65 66 66 66 66 65 65 66 65 65 67 67 68 68 68 68 68 69 69 70 70 70 71 71 70 70 70 70 70 70 70 70 70 70 69 69 69 69 69 70 70 70 70 70 70 70 69 69 69 69 69 68 67 67 67 68 68 69 69 66 65 66
10 10 9 9 9 6 7 7 12 11 9 10 9 7 5 8 13 12 10 6 44 50 54 56 59 61 61 62 65 66 66 66 66 66 66 65 66 66 66 66 65 66 67 66 66 66 67 67 67 67 67 67 68 69 69 69 70 70 70 70 70 70 70 69 69 69 69 69 69 69 70 69 69 68 68 68 68 69 68 68 68 68 67 67 69 65 65 66 66 64 64 66 64 64 65 64 65
10 8 9 8 8 7 6 15 14 11 11 12 14 7 6 3 12 12 10 10 30 52 53 56 60 61 62 62 64 66 66 66 66 65 65 65 66 65 66 66 66 66 66 65 65 66 67 67 67 67 67 67 67 68 69 69 70 69 69 69 69 69 69 68 68 68 68 68 69 69 69 68 69 67 67 67 68 68 68 67 67 67 66 66 68 64 63 63 63 63 62 62 61 62 63 63 65
6 5 5 6 6 4 4 7 15 11 11 13 11 10 6 9 15 11 9 9 47 54 55 57 59 60 62 63 64 65 65 66 66 65 65 65 65 65 66 66 65 65 66 65 66 67 67 67 67 68 67 67 67 68 68 69 68 69 68 69 68 68 68 67 68 68 69 69 69 70 69 68 68 67 67 67 67 68 67 67 67 67 66 66 66 64 63 63 62 62 62 61 61 61 62 63 64
5 4 6 6 7 6 5 4 10 9 12 13 12 7 8 9 10 15 7 6 51 54 57 59 60 60 62 63 64 65 65 65 66 66 66 65 65 66 67 66 65 65 66 66 66 67 67 67 68 68 67 67 67 68 68 68 67 67 67 69 67 69 68 68 67 68 69 69 69 69 69 68 67 67 67 67 67 67 67 67 67 67 67 66 66 65 63 62 61 62 62 61 61 61 62 62 63
4 4 5 5 5 6 6 8 9 12 13 11 12 7 6 10 11 9 4 12 55 56 56 57 60 61 62 64 65 65 65 66 66 67 67 66 64 64 63 64 65 65 66 66 66 67 67 67 68 68 67 67 67 68 68 68 67 66 66 67 67 70 68 67 67 68 68 69 68 68 68 67 67 66 66 66 67 67 67 67 67 67 66 66 65 65 64 62 61 61 61 61 61 62 62 63 61
4 4 5 5 5 5 5 6 9 9 15 11 11 8 7 7 8 5 4 4 34 55 55 57 60 61 62 64 65 65 65 66 66 66 66 64 64 64 64 65 65 66 66 66 66 66 67 68 67 67 67 67 68 69 68 68 67 67 67 68 68 68 67 67 67 67 68 68 67 68 68 67 66 66 66 67 67 66 66 66 66 66 65 65 65 65 64 62 61 62 62 62 61 62 62 64 62
5 5 4 3 3 3 4 3 4 5 7 7 4 5 5 6 7 1 4 3 19 52 54 56 59 60 62 64 65 65 65 66 66 66 66 65 64 65 65 66 66 66 67 66 67 67 68 68 67 68 68 68 68 68 68 68 67 67 67 68 68 68 68 68 68 68 68 67 67 67 67 67 66 66 66 66 66 66 65 65 65 65 64 64 65 64 64 62 63 62 62 62 62 61 66 63 61
5 7 8 8 7 8 10 9 7 6 11 11 13 8 7 5 7 1 1 3 4 40 52 56 58 59 61 63 64 65 65 66 66 66 66 65 64 64 64 65 66 66 66 66 67 68 68 68 68 68 68 67 67 68 68 66 66 67 67 68 68 68 68 68 68 68 68 68 67 67 67 67 67 66 67 66 65 65 65 66 66 65 64 64 66 65 64 65 65 67 67 68 68 67 64 63 64
4 4 2 4 3 3 7 7 7 10 7 10 10 9 7 5 1 2 2 3 3 31 48 52 56 58 60 62 63 63 63 63 64 64 66 64 66 65 64 65 66 65 66 66 66 66 67 67 68 68 68 67 67 67 67 66 67 67 67 68 68 68 68 68 68 68 68 67 67 67 67 67 67 67 66 66 66 65 66 66 66 66 66 65 67 66 67 67 66 66 66 67 67 65 63 63 65
4 3 3 3 3 2 3 5 6 5 5 9 7 6 5 1 1 1 1 1 11 47 50 53 56 58 60 61 61 61 62 61 61 62 64 65 65 64 63 65 65 66 66 66 66 67 67 67 68 67 67 67 67 67 68 67 67 66 67 68 68 68 68 68 68 68 67 67 67 67 67 67 67 67 66 66 66 66 65 65 65 65 66 65 66 67 65 67 65 65 65 63 67 63 63 64 64
7 4 4 6 7 3 3 3 3 3 4 5 5 7 8 4 2 2 1 -0 16 48 49 51 55 58 59 59 60 61 62 61 61 62 63 65 64 66 66 66 65 65 66 67 66 67 67 67 67 67 67 68 68 67 67 67 67 68 67 68 68 68 68 68 68 68 67 67 67 67 67 67 67 67 66 66 66 65 65 65 65 65 65 66 66 66 67 66 66 65 65 63 62 63 63 63 63
7 11 7 5 4 3 4 6 3 0 4 5 3 16 3 3 2 1 1 0 9 49 50 53 54 57 58 58 59 61 62 62 63 63 63 64 66 66 66 66 66 66 66 67 67 66 66 66 67 66 66 66 65 66 67 67 67 67 68 69 68 68 68 67 67 67 67 67 66 66 67 67 67 67 66 66 66 66 65 65 65 66 66 67 67 67 68 66 64 66 65 66 62 62 63 63 63
9 8 25 7 3 3 2 3 2 0 1 3 3 4 3 2 3 2 0 -0 3 44 49 54 55 56 57 58 58 59 61 61 62 62 63 64 66 64 64 63 64 66 67 67 66 65 65 65 66 65 65 66 64 64 66 66 67 67 68 68 68 67 67 67 67 67 67 66 66 66 67 67 66 67 67 65 65 66 66 66 66 66 67 67 66 66 66 66 65 67 66 65 64 62 63 63 63
15 6 10 11 7 7 3 1 1 -0 1 1 2 4 4 6 6 3 2 2 19 31 48 52 54 54 55 57 57 57 59 60 61 61 62 63 64 64 64 65 66 67 67 66 65 65 65 65 65 65 65 65 65 64 65 65 66 67 67 66 67 66 67 67 67 67 67 67 66 66 67 67 66 67 67 65 65 66 66 66 66 67 66 66 65 64 65 65 65 65 63 65 65 62 62 62 62
16 19 15 11 6 6 4 0 -1 0 2 3 4 7 6 7 7 5 10 13 17 26 46 48 52 52 53 55 56 56 57 58 58 60 62 63 63 64 64 63 66 66 66 66 65 65 65 65 65 65 65 65 65 65 64 65 66 64 65 66 66 66 66 67 67 67 67 67 66 67 66 66 67 67 67 66 66 66 66 66 66 66 66 65 65 64 64 64 64 66 64 64 64 63 63 62 62
9 12 12 11 12 7 1 1 3 3 5 5 7 6 7 11 8 13 18 14 17 18 45 49 49 50 51 52 55 55 56 55 57 59 62 62 62 64 63 63 65 65 66 66 65 65 65 66 66 65 65 65 65 64 65 65 65 64 64 66 65 65 65 66 67 67 67 67 67 67 66 66 67 66 66 67 66 66 66 65 65 66 66 65 64 64 62 64 65 64 62 63 62 63 62 63 63
7 6 6 7 7 7 6 2 4 5 4 10 9 12 8 8 9 18 15 20 19 17 45 49 49 49 49 49 53 53 53 54 56 59 60 59 62 64 64 64 65 65 65 66 66 65 65 66 66 64 65 64 64 64 64 64 63 63 64 64 64 65 65 65 66 67 67 67 67 67 66 66 66 66 67 66 66 67 66 65 65 65 65 64 63 63 63 65 65 64 64 64 63 61 61 62 63
13 11 9 9 11 12 12 9 6 8 25 11 17 11 13 11 12 13 18 17 18 22 35 49 49 49 49 50 51 52 52 55 58 59 60 59 61 64 64 64 65 64 65 66 65 65 66 65 64 65 64 63 64 64 64 64 65 64 63 63 64 65 64 65 64 65 66 66 66 66 66 66 65 65 67 66 66 66 65 65 65 65 65 65 64 65 65 66 65 64 63 61 63 63 61 63 63
18 15 13 14 14 14 14 7 8 6 16 19 12 14 16 19 19 18 18 19 21 24 24 48 48 48 48 49 49 49 51 52 54 59 60 58 63 64 64 64 64 64 65 65 65 65 63 63 65 64 63 62 64 64 64 64 64 64 64 64 64 64 66 65 65 66 67 66 66 66 66 65 65 65 66 66 66 66 65 65 64 65 65 65 63 62 63 64 64 64 63 61 61 62 62 62 62
20 18 14 11 13 17 14 23 8 10 14 20 22 15 26 28 25 21 20 12 14 8 19 36 47 47 47 48 48 49 50 50 52 58 58 58 63 63 64 64 64 65 65 65 65 64 63 63 63 64 63 63 64 64 64 64 64 64 64 65 65 65 64 66 65 66 66 66 65 66 65 65 65 65 66 66 66 66 65 64 66 65 64 65 64 63 63 63 63 63 64 62 61 61 61 61 63
28 23 18 17 15 15 13 16 19 28 26 22 18 23 23 25 16 17 17 24 22 12 15 19 42 47 47 47 49 50 49 49 50 56 58 58 62 62 63 64 64 64 65 65 64 63 63 63 63 64 65 64 64 64 64 64 64 63 64 64 64 65 65 65 64 64 65 66 65 64 65 65 66 65 65 66 66 65 65 65 64 64 64 65 65 64 64 65 64 64 64 63 61 61 61 61 62
25 32 29 21 20 19 17 17 12 17 20 24 13 14 18 22 18 15 15 14 14 16 16 12 20 35 45 46 48 50 50 49 50 55 57 57 60 62 62 63 63 64 64 64 63 63 63 63 63 65 66 65 64 64 63 63 63 63 63 63 62 62 62 62 62 63 64 64 64 64 65 65 66 65 65 65 65 65 64 65 65 65 65 63 64 64 63 63 64 64 63 63 61 62 62 61 60
22 25 24 22 19 19 16 10 12 15 11 23 29 12 20 21 18 17 16 15 14 18 17 14 13 19 20 25 46 49 48 50 53 55 58 56 57 61 61 61 61 60 60 60 62 62 63 63 63 66 66 66 65 64 63 63 63 63 63 62 63 62 62 62 63 64 64 65 65 65 65 65 65 65 64 64 64 65 65 65 65 65 64 64 64 64 63 63 64 63 64 63 62 63 62 61 61
18 26 18 17 17 15 13 10 7 12 23 30 23 14 14 11 17 19 18 20 12 11 15 17 12 22 24 45 48 48 49 52 55 58 58 58 58 59 59 60 60 60 61 61 62 62 63 63 64 66 66 65 65 64 63 63 63 63 63 63 63 63 62 62 62 63 64 65 65 65 64 64 64 64 64 64 64 65 65 65 65 65 65 64 65 64 64 64 63 63 63 63 62 62 62 61 61
19 18 15 13 11 12 9 7 12 17 16 12 18 16 12 12 18 17 13 11 31 32 37 38 38 39 43 48 50 52 53 55 57 58 59 59 59 59 60 60 60 60 61 61 62 63 64 64 65 65 65 65 65 64 63 63 63 63 63 63 63 63 63 62 63 64 64 64 64 64 63 63 63 63 63 64 64 64 65 65 65 66 65 64 64 64 64 64 63 62 63 63 63 63 62 62 61
15 13 13 12 9 11 15 18 15 21 14 16 19 25 9 11 25 19 18 23 34 37 39 41 40 37 38 45 50 53 54 55 55 59 61 61 60 60 60 60 60 60 60 60 62 62 62 63 64 64 64 64 64 63 63 63 63 63 63 63 62 62 61 62 63 63 63 63 62 63 62 62 62 62 63 64 63 63 65 64 65 65 64 64 63 63 63 63 63 63 63 63 63 63 62 62 60
13 11 10 9 8 16 22 22 19 18 11 17 17 20 11 10 18 33 37 38 38 39 40 42 40 41 48 51 51 53 53 56 58 59 60 60 61 60 60 60 61 61 61 61 61 61 62 62 63 63 63 64 64 64 63 63 63 62 62 62 62 62 62 63 62 61 62 63 63 62 63 62 62 63 62 63 64 64 64 64 63 62 64 64 62 64 62 63 63 64 64 64 63 63 62 62 61
10 12 10 12 20 13 18 23 19 10 15 19 12 15 14 9 20 35 39 42 42 41 42 42 44 46 48 55 55 55 55 55 56 57 58 58 58 59 60 60 60 60 60 60 60 61 61 61 62 63 63 63 63 64 63 62 62 62 62 62 62 62 63 63 62 61 62 63 63 63 63 63 62 62 62 61 62 62 62 63 63 63 63 63 63 63 63 64 64 64 64 64 63 63 63 62 62
7 12 17 13 14 15 12 12 10 11 13 16 9 6 9 16 34 38 41 41 44 47 47 47 49 49 51 55 56 55 54 54 56 55 54 55 57 58 58 58 59 59 58 58 59 60 61 62 62 62 62 62 62 63 63 62 62 62 62 62 62 63 63 63 63 62 63 63 62 62 62 61 62 61 61 61 61 62 62 62 62 62 62 63 63 62 63 64 63 64 64 64 63 63 63 62 62
13 11 19 13 10 10 8 13 13 13 15 16 11 12 13 35 36 40 41 42 44 46 48 50 50 52 54 55 55 56 55 55 56 56 56 55 56 57 58 58 59 58 58 58 59 59 60 62 62 61 61 62 62 62 63 63 61 61 63 63 62 63 63 63 63 63 63 63 62 61 61 60 61 61 61 61 61 61 61 61 61 60 61 62 63 62 63 63 63 64 63 63 63 63 63 62 62
12 14 12 19 14 15 8 8 8 11 15 26 19 22 15 31 36 42 41 42 43 45 47 51 53 54 54 54 54 54 54 55 55 56 57 57 57 57 57 57 57 58 58 59 60 60 60 61 62 62 62 62 63 63 63 63 62 62 62 63 63 63 63 63 62 62 62 62 61 61 61 61 61 61 61 61 61 60 60 62 62 61 61 61 62 62 63 63 62 63 63 63 63 63 63 63 62
13 12 11 14 17 17 9 15 12 14 18 21 20 21 34 34 42 42 42 41 42 46 49 51 50 50 52 52 53 54 54 54 55 55 56 57 57 57 57 58 58 58 58 59 60 60 60 61 61 61 61 63 63 62 62 63 63 63 62 62 62 62 62 62 62 61 61 61 61 61 61 60 60 61 61 61 61 61 61 59 60 61 61 60 61 61 62 61 61 62 62 63 63 64 63 62 62
22 10 11 12 21 14 15 16 23 20 17 16 20 35 38 40 40 41 43 42 43 48 49 50 50 50 52 53 53 54 54 55 56 56 55 56 57 58 58 58 58 57 58 58 59 59 60 60 61 61 61 61 62 62 62 63 63 63 63 62 62 62 62 62 62 61 61 60 61 61 59 59 60 60 60 60 59 58 58 58 58 59 60 60 60 60 61 60 61 61 62 62 62 63 63 63 62
13 14 14 13 12 19 16 14 16 10 10 14 19 27 34 35 30 40 43 44 46 48 49 50 51 51 52 53 53 54 54 55 56 56 56 56 57 58 58 58 58 57 58 59 59 59 60 60 61 61 61 61 62 62 62 63 63 63 63 63 62 62 62 61 61 61 60 60 61 61 60 60 59 59 60 60 58 57 60 60 58 59 60 60 59 60 60 60 61 61 61 61 61 61 61 62 62
9 10 15 14 15 13 19 5 6 9 11 14 16 30 32 35 35 40 42 45 46 48 49 49 49 50 51 52 53 53 54 55 56 56 56 55 55 56 58 58 59 59 59 59 59 61 61 61 60 61 61 61 61 62 62 63 63 64 63 63 63 62 62 61 61 60 60 60 60 60 59 60 59 59 59 58 58 59 58 57 57 58 58 58 59 60 59 59 60 60 59 59 61 62 61 61 61
12 12 9 13 21 21 11 13 14 17 16 12 16 27 25 38 38 41 45 46 47 48 49 49 51 52 52 52 53 54 54 55 56 57 57 57 57 57 57 57 59 59 59 59 60 61 61 61 61 61 61 60 61 61 61 62 64 63 62 61 62 61 61 61 60 60 60 60 60 59 59 59 58 59 59 58 58 58 57 57 57 58 58 58 58 58 59 59 58 59 59 58 60 61 61 61 61
13 12 14 14 24 27 18 28 11 17 16 18 19 22 28 36 43 45 46 47 47 49 49 50 51 51 52 52 53 53 53 54 54 56 57 57 56 57 57 58 59 59 59 60 61 61 61 62 62 62 60 60 61 62 62 63 63 61 60 61 62 61 61 61 60 60 60 59 60 60 59 58 58 58 58 57 57 57 56 55 55 57 57 57 58 58 58 58 58 58 59 58 59 59 60 60 61
14 13 15 12 17 16 11 19 22 20 14 16 19 21 32 41 47 48 46 48 49 50 50 49 50 50 50 50 51 52 52 53 54 54 54 54 55 57 58 59 59 59 59 59 60 59 60 60 61 61 62 61 61 62 62 62 62 61 60 61 62 61 61 60 60 60 59 59 59 59 58 58 58 57 57 57 56 57 56 55 55 55 57 58 57 56 57 58 58 57 57 58 57 57 58 59 60